TimePHT,TemperatureF,Dew PointF,Humidity,Sea Level PressureIn,VisibilityMPH,Wind Direction,Wind SpeedMPH,Gust SpeedMPH,PrecipitationIn,Events,Conditions,WindDirDegrees,DateUTC
12:00 AM,77.0,69.8,78,29.89,6.2,ENE,8.1,-,N/A,,Partly Cloudy,70,2012-11-02 16:00:00
1:00 AM,75.2,69.8,83,29.86,6.2,ENE,5.8,-,N/A,,Partly Cloudy,60,2012-11-02 17:00:00
2:00 AM,75,70,79,29.87,11,ENE,4.5,,,,Haze,60,2012-11-02 18:00:00
2:00 AM,75.2,69.8,83,29.86,6.2,ENE,4.6,-,N/A,,Partly Cloudy,60,2012-11-02 18:00:00
3:00 AM,75.2,69.8,83,29.83,6.2,ENE,5.8,-,N/A,,Scattered Clouds,60,2012-11-02 19:00:00
4:00 AM,75.2,69.8,83,29.83,6.2,ENE,5.8,-,N/A,,Scattered Clouds,60,2012-11-02 20:00:00
5:00 AM,74,69,79,29.85,11,ENE,8.9,,,,Haze,70,2012-11-02 21:00:00
5:00 AM,75.2,69.8,83,29.83,6.2,ENE,8.1,-,N/A,,Scattered Clouds,70,2012-11-02 21:00:00
6:00 AM,77.0,69.8,78,29.86,6.2,NE,6.9,-,N/A,,Scattered Clouds,50,2012-11-02 22:00:00
7:00 AM,77.0,69.8,78,29.89,6.2,NE,4.6,-,N/A,,Scattered Clouds,40,2012-11-02 23:00:00
8:00 AM,81,69,58,29.89,12,ENE,6.7,,,,Haze,70,2012-11-03 00:00:00
8:00 AM,80.6,68.0,65,29.89,6.2,ENE,5.8,-,N/A,,Scattered Clouds,70,2012-11-03 00:00:00
9:00 AM,84.2,68.0,58,29.89,6.2,ENE,12.7,-,N/A,,Unknown,70,2012-11-03 01:00:00
10:00 AM,86.0,69.8,58,29.89,6.2,ENE,12.7,-,N/A,,Unknown,70,2012-11-03 02:00:00
11:00 AM,88,70,46,29.86,12,East,15.7,,,,Haze,90,2012-11-03 03:00:00
11:00 AM,87.8,69.8,55,29.86,6.2,East,16.1,-,N/A,,Unknown,90,2012-11-03 03:00:00
12:00 PM,89.6,69.8,52,29.83,6.2,East,13.8,-,N/A,,Unknown,80,2012-11-03 04:00:00
1:00 PM,89.6,69.8,52,29.80,6.2,ENE,10.4,-,N/A,,Partly Cloudy,60,2012-11-03 05:00:00
2:00 PM,90,72,46,29.81,12,East,8.9,,,,Haze,80,2012-11-03 06:00:00
2:00 PM,89.6,71.6,55,29.80,6.2,ENE,8.1,-,N/A,,Partly Cloudy,70,2012-11-03 06:00:00
3:00 PM,89.6,69.8,52,29.80,6.2,ENE,9.2,-,N/A,,Partly Cloudy,70,2012-11-03 07:00:00
4:00 PM,89.6,71.6,55,29.80,6.2,East,6.9,-,N/A,,Partly Cloudy,80,2012-11-03 08:00:00
5:00 PM,88,73,54,29.83,12,ENE,8.9,,,,Haze,60,2012-11-03 09:00:00
5:00 PM,87.8,73.4,62,29.83,6.2,East,8.1,-,N/A,,Mostly Cloudy,80,2012-11-03 09:00:00
6:00 PM,86.0,73.4,66,29.83,6.2,NE,4.6,-,N/A,,Overcast,50,2012-11-03 10:00:00
7:00 PM,84.2,71.6,66,29.86,6.2,North,8.1,-,N/A,,Scattered Clouds,360,2012-11-03 11:00:00
8:00 PM,83,73,64,29.89,7,North,6.7,,,,Haze,0,2012-11-03 12:00:00
11:00 PM,80,74,76,29.89,7,NE,2.2,,,,Haze,40,2012-11-03 15:00:00
11:00 PM,80.6,73.4,79,29.89,6.2,Variable,2.3,-,N/A,,Partly Cloudy,0,2012-11-03 15:00:00